Temperature
19 19 20 19 19 19 19 19 19 19 19 19 19 19 19 19 19 19 19 19 19 19 19 19 19 19 19 19 19 19 19 19 19 19 19 19 19 19 19 19 18 18 19
20 19 20 19 19 19 19 19 19 19 19 19 19 19 19 19 19 19 19 19 19 19 19 19 19 19 19 19 19 19 19 19 19 19 19 19 19 19 19 19 19 18 18
20 19 20 19 19 19 19 19 19 19 19 19 19 19 19 19 18 19 19 19 19 19 18 18 18 19 19 19 19 19 19 18 19 19 18 18 18 19 19 19 19 19 18
19 19 19 20 19 19 19 19 19 19 19 19 19 19 19 18 18 18 18 18 18 18 18 18 18 18 18 19 19 18 18 18 18 18 18 18 17 18 19 18 18 18 18
19 19 19 20 20 20 19 19 19 19 19 19 18 18 18 18 18 18 18 18 18 18 18 18 18 18 18 18 18 18 18 18 18 18 17 18 18 18 18 18 18 18 18
19 19 20 20 20 20 20 19 19 19 19 18 18 18 18 19 18 18 18 18 18 18 18 18 18 18 18 18 18 18 18 18 18 17 17 17 18 18 18 18 18 18 18
20 19 19 20 20 20 20 19 19 19 19 19 18 18 19 19 19 18 18 18 18 18 18 18 18 18 18 18 18 18 18 18 17 17 17 17 18 18 18 18 18 18 18
20 19 19 20 20 20 19 19 19 19 19 19 19 19 19 19 18 18 18 18 18 18 18 18 18 18 18 18 18 18 18 18 17 17 17 17 18 18 18 18 18 18 18
19 19 19 19 19 19 19 19 19 19 19 19 19 19 19 18 18 18 18 18 18 18 18 18 18 18 18 18 18 18 18 18 17 17 17 17 18 18 18 18 18 18 18
19 19 19 19 18 18 18 19 19 19 19 19 19 19 19 18 18 18 18 18 18 18 18 18 18 18 18 18 18 18 18 17 17 17 18 17 18 18 18 18 18 18 18
19 19 19 19 19 18 18 18 18 19 19 19 18 19 19 18 17 18 17 18 18 18 18 18 18 18 18 18 18 18 18 17 17 18 17 17 18 18 18 18 18 18 18
19 19 19 19 19 18 18 18 18 18 18 18 18 18 18 18 17 17 17 18 18 18 18 18 18 18 18 17 18 18 17 17 18 18 17 18 18 18 18 18 18 18 18
18 19 19 19 19 18 18 18 18 18 18 18 18 18 18 18 17 17 17 17 17 18 17 18 18 17 17 18 18 18 18 18 18 18 17 18 17 17 18 18 18 18 18
18 18 19 19 19 19 19 18 18 18 18 18 18 18 18 18 18 18 17 17 17 17 17 17 17 18 18 18 18 18 18 18 18 18 17 18 17 17 17 17 18 18 18
17 17 18 19 19 19 19 19 18 18 18 18 18 18 18 18 18 18 18 17 17 17 17 17 18 18 18 19 19 19 19 18 18 18 17 18 17 17 17 17 18 18 18
16 17 17 18 18 19 19 19 19 18 18 18 18 18 18 18 18 18 18 18 18 17 17 17 18 18 18 18 18 18 18 19 18 18 18 17 17 17 17 17 17 17 17
16 16 17 17 18 18 18 19 19 19 18 18 18 18 18 18 18 18 18 18 18 17 18 18 18 18 18 18 18 18 19 18 18 18 18 17 17 17 17 17 17 17 17
16 16 16 17 17 18 18 18 19 19 19 18 18 18 18 18 18 18 18 18 17 18 17 17 18 17 18 18 18 19 19 18 18 18 18 17 17 17 17 17 17 17 17
15 16 16 17 17 17 18 18 18 18 18 18 18 18 18 18 18 18 18 18 18 17 17 17 17 18 18 18 18 18 18 18 18 18 18 18 17 17 17 17 17 17 17
14 15 15 16 17 17 17 17 18 18 18 18 18 18 18 18 18 18 18 18 18 17 17 17 17 17 17 17 18 18 18 18 18 18 18 18 18 17 17 17 17 17 17
14 14 14 15 15 16 17 17 17 17 17 18 18 18 18 18 18 18 18 18 18 18 18 17 17 17 17 17 18 18 18 18 18 18 18 18 18 17 17 17 17 17 17
13 13 14 14 14 15 15 16 16 17 17 17 17 17 18 18 18 18 18 18 18 18 18 17 17 17 17 17 17 18 18 18 18 18 18 17 18 18 17 17 17 17 17
12 12 13 13 13 14 14 15 15 16 16 16 16 17 17 17 18 18 18 18 18 18 18 17 17 17 17 17 17 17 17 18 18 18 18 17 17 18 17 17 17 17 17
12 12 12 12 13 13 13 14 14 14 15 15 16 16 17 17 17 17 17 17 17 17 18 17 17 17 17 17 17 17 17 17 17 17 17 17 17 17 17 17 17 17 17
11 12 12 12 13 13 13 13 14 14 14 15 15 16 16 16 16 17 17 17 17 17 17 17 17 17 17 17 16 16 16 16 16 16 17 17 17 17 17 17 17 17 17
11 11 12 12 12 13 13 13 13 14 14 14 15 15 15 15 16 16 16 16 17 17 17 17 17 17 16 16 16 16 16 16 16 16 16 16 16 16 16 17 17 17 16
Wind_Speed
12 15 17 15 14 13 12 12 12 11 11 10 10 9 8 7 6 5 4 3 3 3 4 4 4 5 5 5 5 5 6 7 8 9 9 8 8 8 7 6 4 8 9
15 17 18 16 15 14 13 12 11 11 10 10 9 8 7 6 5 4 3 3 3 3 3 4 4 5 5 5 5 5 6 7 8 8 7 8 8 7 7 6 6 8 7
16 17 18 16 15 14 13 12 11 10 10 9 9 8 7 6 5 4 4 3 3 3 3 3 4 5 5 5 5 5 5 6 7 5 1 6 8 7 6 6 7 7 7
15 15 16 17 15 14 13 12 11 10 9 9 8 8 7 6 5 5 4 4 3 3 3 3 3 4 5 4 4 4 4 4 5 2 1 5 7 8 6 6 6 7 6
13 13 15 16 15 14 13 12 11 10 9 9 8 8 7 6 6 5 5 4 3 3 3 3 3 4 4 4 4 3 3 5 4 2 4 4 6 6 5 6 6 6 6
12 12 14 14 14 13 12 12 11 10 9 9 9 8 7 7 6 5 5 4 4 4 3 3 3 3 4 3 3 3 4 4 4 4 4 4 6 5 5 5 5 5 6
11 11 13 13 13 12 12 11 11 10 10 9 9 8 8 7 6 5 5 5 4 4 4 4 4 3 3 3 2 2 4 2 2 4 4 5 6 5 4 4 5 5 5
9 9 11 12 10 10 10 10 11 11 10 10 10 9 8 7 7 6 5 5 5 4 4 4 4 4 4 3 2 2 3 3 4 5 5 6 6 4 3 4 4 4 5
7 7 7 10 12 11 9 9 10 10 11 11 11 10 9 8 7 7 6 6 5 5 4 5 5 5 5 4 3 3 3 1 2 4 5 7 6 4 4 3 3 4 4
5 5 6 6 7 9 11 12 11 11 11 11 12 11 10 9 9 8 9 8 6 5 5 4 5 6 6 5 4 3 3 5 3 4 4 8 5 4 4 3 3 3 4
2 4 5 6 6 7 8 9 11 12 12 12 12 12 12 11 11 11 8 8 6 5 5 5 5 6 6 6 5 4 5 5 4 1 3 8 4 3 3 3 3 3 3
3 4 5 7 8 9 9 9 10 11 11 12 11 12 12 10 7 6 9 8 7 6 6 5 5 7 9 8 8 8 6 5 4 2 5 6 2 1 2 2 2 2 2
9 7 7 7 8 9 8 9 8 8 8 10 11 11 11 9 8 8 8 10 11 10 10 9 9 8 7 5 5 7 5 4 3 2 5 5 1 1 2 2 2 2 2
11 11 11 10 8 9 10 9 9 9 8 9 10 12 10 7 8 8 7 8 7 8 7 7 7 7 7 7 8 7 7 5 3 1 5 5 1 0 2 3 3 2 2
12 12 12 11 10 9 8 8 9 9 10 11 10 11 12 9 8 8 8 8 8 8 8 7 8 7 7 7 7 7 7 6 4 2 4 6 3 1 1 2 4 4 4
12 12 11 11 9 9 7 7 8 9 9 10 10 12 12 11 10 8 9 8 8 8 8 8 9 7 7 6 6 7 6 6 5 4 3 6 5 2 0 2 3 4 5
12 12 11 11 10 9 8 7 7 8 10 9 9 11 12 13 12 10 9 9 9 10 10 9 9 8 7 6 7 8 7 6 6 6 4 3 4 6 3 1 2 2 4
12 12 11 10 10 10 9 7 6 7 8 9 10 10 12 13 14 11 9 10 10 9 8 8 8 8 8 8 8 7 7 6 8 7 6 6 3 2 5 5 2 2 3
12 12 12 11 11 10 10 8 7 7 7 9 10 10 12 13 14 12 9 10 11 9 8 8 9 8 8 7 7 6 7 7 7 8 8 7 5 4 3 6 5 3 2
12 12 11 11 10 10 8 7 6 6 6 7 9 11 14 13 13 12 9 11 10 8 8 8 9 8 7 7 8 7 8 7 7 8 8 7 6 6 5 4 5 7 5
13 13 12 11 10 9 7 7 6 6 6 6 7 12 14 15 14 12 9 10 9 9 10 10 8 9 7 7 7 8 9 9 10 8 8 8 8 7 7 7 5 4 6
15 14 13 12 11 9 7 7 6 7 6 7 7 9 13 14 15 12 12 10 10 9 11 11 9 6 6 6 6 6 7 9 9 10 9 9 9 8 9 9 8 7 5
16 15 12 12 11 10 9 7 7 6 6 5 6 6 9 11 13 14 13 12 11 10 10 11 11 10 8 7 7 6 5 7 6 8 11 11 10 8 8 9 10 9 8
16 15 13 12 11 10 9 7 8 6 6 6 6 6 7 8 10 12 12 12 11 10 11 11 11 10 10 8 6 7 6 4 3 4 6 9 9 10 10 8 9 10 10
16 14 13 12 10 9 8 7 7 6 6 5 6 5 4 4 5 7 9 10 11 10 12 11 11 12 10 9 8 6 6 5 7 6 5 5 5 7 8 9 8 9 9
16 14 13 12 10 9 8 7 6 6 6 6 5 3 1 0 1 2 4 7 8 9 10 11 11 12 11 11 10 9 8 7 7 7 7 5 4 4 5 6 7 7 8
Wind_Direction
152 151 147 149 145 141 136 133 132 133 136 141 147 152 158 160 162 163 162 159 163 165 165 165 158 139 128 122 115 104 88 79 77 78 82 84 85 90 93 98 120 105 106
149 149 148 150 147 144 141 137 136 137 139 141 144 146 149 150 147 141 137 129 128 140 155 157 154 143 135 130 121 109 99 88 79 77 90 100 89 89 93 80 46 90 108
146 148 152 152 150 148 146 143 142 142 143 144 145 145 147 150 147 138 128 117 108 111 128 139 138 137 137 132 123 113 105 98 89 85 186 98 98 89 92 92 89 99 103
147 150 154 152 154 153 151 148 147 147 148 149 149 150 151 152 150 142 131 117 105 99 101 113 123 131 134 129 123 118 117 115 108 215 90 76 88 88 88 92 97 99 99
148 150 147 155 157 157 157 154 153 152 152 154 153 152 152 150 146 141 132 123 113 100 92 94 107 127 129 124 119 117 124 126 144 230 71 73 79 90 88 91 96 97 97
152 153 150 161 161 163 163 162 162 160 160 161 159 157 156 152 147 145 141 133 122 108 95 89 98 115 120 121 119 116 117 131 188 95 91 89 89 98 95 92 94 98 97
157 157 156 165 168 170 170 171 171 169 169 169 171 169 166 162 158 156 151 138 127 116 101 89 95 109 119 128 129 119 119 153 115 105 105 87 82 95 98 94 92 97 100
161 165 160 167 177 180 182 184 181 180 178 179 182 181 177 173 166 161 154 145 134 122 110 100 100 109 116 128 135 126 129 238 129 108 99 89 76 86 89 83 88 100 100
170 181 182 179 185 192 198 200 196 193 191 190 190 188 186 181 179 176 169 158 147 137 125 114 110 114 119 124 127 126 120 342 141 115 107 86 80 77 78 73 70 88 100
186 203 210 208 207 206 204 204 212 210 205 202 196 196 193 192 194 192 193 171 163 157 147 134 125 120 121 124 125 129 156 218 183 147 112 89 79 75 75 70 68 78 88
232 241 237 240 235 239 239 213 216 221 217 212 207 200 203 210 203 198 194 162 178 175 167 159 151 140 145 142 135 154 211 212 167 178 88 80 78 79 83 78 74 83 87
332 292 271 259 250 245 246 243 234 231 223 223 223 209 214 221 218 223 147 183 197 193 187 180 172 181 209 182 166 195 204 196 189 174 104 94 83 97 112 104 94 97 107
358 352 325 297 273 259 248 250 248 244 237 236 237 230 228 225 218 222 204 191 201 202 206 177 202 208 208 196 200 197 194 211 200 187 116 111 113 213 176 154 138 131 138
12 2 349 333 309 284 267 257 253 252 248 243 238 237 234 235 234 224 220 217 207 205 213 217 221 204 215 200 202 204 187 210 206 193 104 110 108 235 219 187 176 177 180
12 2 355 346 336 319 298 277 265 257 254 252 248 247 235 232 237 234 226 218 222 217 206 217 221 208 217 216 206 213 204 196 198 199 126 122 111 82 270 218 198 196 198
6 359 353 349 349 333 310 288 278 273 266 264 256 250 247 237 237 239 237 224 224 222 221 219 217 208 212 215 213 211 223 209 207 200 183 147 144 133 333 267 233 213 205
357 354 352 343 344 337 324 302 289 281 278 271 265 260 253 246 243 238 241 233 224 219 220 222 217 215 214 211 219 225 222 228 225 215 197 203 166 153 164 221 259 247 220
347 345 345 341 339 335 327 309 284 273 269 267 266 265 260 254 247 242 240 238 232 224 220 215 220 215 214 217 223 221 223 215 230 230 218 208 205 177 163 164 211 235 229
339 336 336 337 334 333 326 313 297 275 258 257 257 261 261 258 254 244 240 240 232 225 222 219 215 219 224 225 234 231 233 222 219 221 227 222 200 211 197 152 185 203 208
334 329 327 328 327 328 323 316 309 289 268 254 248 246 252 255 254 248 241 238 233 223 220 218 215 217 233 233 240 236 231 227 225 222 231 232 228 211 212 194 193 179 185
336 330 323 321 323 324 321 318 313 304 293 272 257 247 244 243 244 240 238 236 228 221 220 216 213 213 222 231 238 235 228 226 231 220 225 230 229 222 219 212 215 196 175
338 331 324 321 320 318 312 305 290 288 283 276 264 255 248 242 235 232 229 230 227 223 222 216 206 209 211 215 227 238 237 226 224 228 224 228 236 218 225 219 212 203 206
341 335 325 321 315 312 309 302 298 293 282 274 269 264 258 249 237 229 226 225 225 222 223 217 207 207 206 210 224 223 229 234 229 215 222 225 230 233 227 226 223 209 202
344 338 329 321 318 317 310 302 303 298 298 297 292 277 265 252 241 231 226 225 223 222 222 218 212 215 210 207 210 225 238 263 235 225 215 227 228 230 233 226 228 225 208
347 344 337 330 326 325 321 313 305 302 301 301 295 282 270 255 242 234 226 222 222 222 223 219 212 214 212 210 203 202 219 236 244 245 234 214 218 228 234 235 226 225 216
351 350 348 344 341 341 339 337 334 330 331 333 333 333 334 332 243 233 224 222 222 221 221 219 215 213 214 216 213 207 203 206 216 223 228 227 224 226 227 231 235 224 221
Height
1548 1550 1551 1553 1555 1556 1558 1559 1560 1561 1562 1562 1563 1563 1564 1564 1565 1565 1565 1565 1565 1565 1566 1566 1566 1566 1566 1566 1566 1566 1566 1565 1565 1564 1563 1563 1562 1561 1561 1560 1560 1561 1560
1548 1550 1552 1554 1556 1557 1559 1560 1561 1562 1563 1563 1564 1564 1565 1565 1565 1566 1566 1566 1566 1566 1566 1566 1566 1567 1567 1567 1567 1567 1567 1567 1566 1566 1565 1565 1564 1563 1563 1562 1562 1562 1561
1550 1551 1553 1555 1557 1558 1560 1561 1562 1563 1564 1564 1564 1565 1565 1566 1566 1566 1566 1566 1566 1566 1567 1567 1567 1567 1568 1568 1568 1568 1568 1568 1568 1568 1567 1568 1566 1565 1565 1564 1563 1563 1563
1552 1554 1555 1556 1558 1560 1561 1562 1563 1564 1564 1565 1565 1565 1566 1566 1567 1567 1567 1567 1567 1567 1567 1567 1568 1568 1568 1569 1569 1569 1569 1570 1569 1569 1570 1570 1569 1567 1566 1566 1565 1565 1564
1554 1556 1556 1558 1559 1561 1562 1563 1564 1564 1565 1565 1565 1566 1566 1567 1567 1567 1567 1567 1567 1567 1567 1567 1568 1568 1569 1569 1570 1570 1570 1570 1570 1570 1570 1569 1569 1568 1567 1567 1567 1566 1566
1556 1557 1558 1559 1560 1562 1563 1563 1564 1565 1565 1565 1566 1566 1567 1567 1567 1567 1567 1567 1567 1568 1568 1568 1568 1568 1569 1570 1570 1571 1571 1571 1571 1571 1571 1570 1570 1569 1569 1568 1568 1567 1567
1558 1560 1560 1560 1561 1562 1563 1564 1564 1565 1565 1565 1566 1566 1567 1567 1567 1567 1567 1567 1567 1567 1568 1568 1568 1568 1569 1570 1571 1571 1572 1572 1573 1572 1572 1571 1571 1570 1569 1569 1569 1569 1568
1560 1561 1562 1561 1562 1563 1564 1564 1565 1565 1565 1565 1566 1566 1566 1567 1567 1567 1567 1567 1567 1567 1568 1568 1568 1568 1569 1570 1571 1572 1572 1573 1574 1574 1573 1573 1571 1571 1570 1570 1570 1570 1569
1562 1563 1563 1563 1562 1563 1563 1564 1564 1564 1565 1565 1565 1566 1566 1567 1567 1567 1567 1567 1567 1567 1567 1567 1568 1568 1569 1570 1571 1572 1572 1573 1575 1575 1575 1574 1572 1571 1571 1571 1570 1570 1570
1563 1563 1564 1565 1565 1564 1564 1563 1564 1564 1564 1564 1565 1565 1566 1566 1566 1566 1566 1566 1566 1566 1566 1567 1567 1568 1568 1569 1571 1572 1573 1574 1575 1575 1576 1574 1572 1572 1572 1571 1571 1571 1571
1563 1563 1564 1564 1564 1563 1564 1563 1562 1562 1563 1563 1563 1563 1564 1565 1566 1566 1566 1565 1565 1565 1566 1566 1567 1567 1568 1569 1570 1571 1573 1575 1575 1576 1575 1573 1572 1572 1571 1571 1571 1571 1571
1563 1563 1563 1563 1563 1562 1562 1562 1560 1561 1561 1561 1562 1562 1562 1564 1565 1565 1564 1564 1564 1564 1565 1565 1566 1567 1568 1570 1570 1571 1574 1574 1575 1575 1575 1573 1572 1571 1571 1570 1571 1571 1571
1561 1561 1561 1561 1561 1561 1560 1559 1559 1559 1558 1559 1559 1560 1560 1561 1562 1563 1564 1563 1563 1563 1565 1564 1565 1568 1569 1570 1571 1572 1573 1574 1575 1575 1574 1572 1571 1570 1569 1569 1570 1570 1571
1558 1557 1557 1557 1557 1558 1557 1557 1556 1556 1556 1556 1556 1557 1557 1558 1559 1561 1562 1563 1563 1563 1564 1565 1566 1567 1568 1569 1570 1571 1572 1573 1574 1574 1572 1571 1570 1569 1569 1568 1569 1569 1570
1557 1556 1554 1554 1553 1553 1553 1553 1553 1553 1554 1554 1553 1554 1554 1555 1556 1558 1559 1560 1561 1562 1562 1562 1564 1565 1566 1568 1569 1570 1571 1572 1573 1573 1572 1570 1569 1568 1568 1568 1568 1568 1569
1557 1554 1552 1551 1550 1549 1549 1549 1549 1550 1550 1551 1551 1551 1552 1552 1553 1554 1556 1557 1558 1559 1560 1561 1562 1563 1564 1566 1567 1569 1570 1571 1571 1571 1572 1570 1569 1568 1567 1567 1567 1568 1568
1556 1553 1551 1549 1547 1546 1545 1545 1545 1545 1546 1547 1547 1548 1549 1549 1549 1551 1552 1554 1556 1556 1558 1559 1561 1562 1563 1564 1565 1567 1568 1569 1570 1570 1570 1570 1570 1568 1567 1566 1566 1567 1567
1555 1552 1549 1547 1545 1543 1542 1541 1540 1540 1541 1542 1543 1544 1545 1545 1546 1547 1548 1550 1552 1554 1555 1556 1557 1559 1561 1562 1564 1565 1566 1567 1568 1569 1569 1569 1569 1568 1567 1566 1566 1566 1566
1553 1550 1548 1545 1542 1540 1538 1537 1536 1536 1536 1537 1538 1539 1540 1541 1542 1543 1544 1546 1548 1549 1551 1553 1554 1556 1559 1560 1561 1562 1564 1564 1565 1566 1567 1568 1568 1567 1568 1566 1566 1565 1565
1550 1547 1545 1542 1540 1538 1536 1534 1532 1532 1532 1532 1532 1533 1535 1536 1538 1539 1540 1541 1543 1545 1546 1549 1551 1552 1555 1557 1558 1560 1561 1562 1563 1564 1565 1566 1567 1567 1567 1567 1566 1566 1565
1547 1544 1542 1539 1536 1534 1532 1530 1528 1528 1527 1527 1527 1527 1529 1531 1532 1534 1536 1537 1539 1540 1542 1544 1546 1548 1550 1553 1555 1557 1558 1558 1560 1561 1562 1563 1564 1565 1565 1565 1566 1566 1565
1545 1541 1538 1536 1533 1530 1528 1526 1524 1523 1522 1522 1522 1522 1523 1524 1525 1527 1530 1531 1533 1535 1537 1539 1541 1543 1546 1548 1551 1553 1554 1556 1555 1557 1558 1559 1561 1562 1563 1564 1565 1564 1565
1542 1538 1534 1531 1529 1526 1524 1522 1520 1519 1518 1517 1517 1516 1517 1517 1519 1521 1523 1525 1528 1530 1532 1534 1536 1538 1541 1543 1546 1548 1550 1550 1551 1553 1554 1555 1557 1559 1560 1561 1562 1563 1563
1540 1535 1531 1528 1525 1523 1520 1519 1517 1515 1514 1513 1512 1512 1511 1512 1513 1514 1517 1519 1522 1524 1526 1528 1530 1533 1535 1537 1540 1542 1545 1546 1548 1549 1550 1551 1553 1555 1556 1558 1559 1561 1562
1538 1533 1528 1525 1522 1519 1517 1515 1514 1512 1511 1509 1508 1507 1507 1507 1508 1509 1511 1514 1516 1518 1520 1523 1524 1527 1529 1532 1534 1536 1538 1541 1543 1545 1546 1548 1549 1550 1552 1554 1556 1557 1559
1537 1532 1527 1524 1521 1518 1515 1513 1511 1510 1508 1507 1506 1505 1504 1504 1505 1506 1507 1509 1511 1513 1515 1517 1519 1521 1523 1525 1528 1530 1532 1534 1536 1539 1541 1543 1545 1546 1548 1549 1551 1553 1554